Year,Month,Day,Hour,Minute,Value (Times are PST for temperature in C)
2012,08,05,00,00,25.60
2012,08,05,00,01,25.60
2012,08,05,00,02,25.60
2012,08,05,00,03,25.60
2012,08,05,00,04,25.60
2012,08,05,00,05,25.60
2012,08,05,00,06,25.60
2012,08,05,00,07,25.50
2012,08,05,00,08,25.40
2012,08,05,00,09,25.40
2012,08,05,00,10,25.30
2012,08,05,00,11,25.30
2012,08,05,00,12,25.30
2012,08,05,00,13,25.20
2012,08,05,00,14,25.10
2012,08,05,00,15,25.10
2012,08,05,00,16,25.00
2012,08,05,00,17,25.00
2012,08,05,00,18,24.90
2012,08,05,00,19,24.90
2012,08,05,00,20,24.80
2012,08,05,00,21,24.80
2012,08,05,00,22,24.80
2012,08,05,00,23,24.70
2012,08,05,00,24,24.70
2012,08,05,00,25,24.70
2012,08,05,00,26,24.70
2012,08,05,00,27,24.70
2012,08,05,00,28,24.70
2012,08,05,00,29,24.70
2012,08,05,00,30,24.70
2012,08,05,00,31,24.60
2012,08,05,00,32,24.60
2012,08,05,00,33,24.60
2012,08,05,00,34,24.50
2012,08,05,00,35,24.50
2012,08,05,00,36,24.40
2012,08,05,00,37,24.40
2012,08,05,00,38,24.40
2012,08,05,00,39,24.30
2012,08,05,00,40,24.30
2012,08,05,00,41,24.30
2012,08,05,00,42,24.30
2012,08,05,00,43,24.20
2012,08,05,00,44,24.20
2012,08,05,00,45,24.20
2012,08,05,00,46,24.10
2012,08,05,00,47,24.10
2012,08,05,00,48,24.10
2012,08,05,00,49,24.00
2012,08,05,00,50,24.00
2012,08,05,00,51,24.00
2012,08,05,00,52,24.00
2012,08,05,00,53,23.90
2012,08,05,00,54,23.90
2012,08,05,00,55,23.90
2012,08,05,00,56,23.90
2012,08,05,00,57,23.90
2012,08,05,00,58,23.90
2012,08,05,00,59,23.90
2012,08,05,01,00,23.90
2012,08,05,01,01,23.90
2012,08,05,01,02,23.90
2012,08,05,01,03,23.90
2012,08,05,01,04,23.90
2012,08,05,01,05,23.90
2012,08,05,01,06,23.80
2012,08,05,01,07,23.80
2012,08,05,01,08,23.80
2012,08,05,01,09,23.70
2012,08,05,01,10,23.70
2012,08,05,01,11,23.70
2012,08,05,01,12,23.60
2012,08,05,01,13,23.60
2012,08,05,01,14,23.60
2012,08,05,01,15,23.50
2012,08,05,01,16,23.40
2012,08,05,01,17,23.40
2012,08,05,01,18,23.40
2012,08,05,01,19,23.40
2012,08,05,01,20,23.40
2012,08,05,01,21,23.40
2012,08,05,01,22,23.40
2012,08,05,01,23,23.40
2012,08,05,01,24,23.40
2012,08,05,01,25,23.40
2012,08,05,01,26,23.40
2012,08,05,01,27,23.30
2012,08,05,01,28,23.30
2012,08,05,01,29,23.30
2012,08,05,01,30,23.30
2012,08,05,01,31,23.20
2012,08,05,01,32,23.20
2012,08,05,01,33,23.20
2012,08,05,01,34,23.10
2012,08,05,01,35,23.10
2012,08,05,01,36,23.10
2012,08,05,01,37,23.10
2012,08,05,01,38,23.10
2012,08,05,01,39,23.00
2012,08,05,01,40,23.00
2012,08,05,01,41,23.00
2012,08,05,01,42,22.90
2012,08,05,01,43,22.90
2012,08,05,01,44,22.90
2012,08,05,01,45,22.80
2012,08,05,01,46,22.80
2012,08,05,01,47,22.80
2012,08,05,01,48,22.70
2012,08,05,01,49,22.70
2012,08,05,01,50,22.60
2012,08,05,01,51,22.60
2012,08,05,01,52,22.60
2012,08,05,01,53,22.60
2012,08,05,01,54,22.50
2012,08,05,01,55,22.50
2012,08,05,01,56,22.40
2012,08,05,01,57,22.40
2012,08,05,01,58,22.40
2012,08,05,01,59,22.30
2012,08,05,02,00,22.30
2012,08,05,02,01,22.40
2012,08,05,02,02,22.40
2012,08,05,02,03,22.40
2012,08,05,02,04,22.40
2012,08,05,02,05,22.30
2012,08,05,02,06,22.30
2012,08,05,02,07,22.30
2012,08,05,02,08,22.30
2012,08,05,02,09,22.30
2012,08,05,02,10,22.30
2012,08,05,02,11,22.30
2012,08,05,02,12,22.30
2012,08,05,02,13,22.30
2012,08,05,02,14,22.30
2012,08,05,02,15,22.30
2012,08,05,02,16,22.30
2012,08,05,02,17,22.30
2012,08,05,02,18,22.20
2012,08,05,02,19,22.20
2012,08,05,02,20,22.20
2012,08,05,02,21,22.20
2012,08,05,02,22,22.20
2012,08,05,02,23,22.10
2012,08,05,02,24,22.10
2012,08,05,02,25,22.10
2012,08,05,02,26,22.10
2012,08,05,02,27,22.10
2012,08,05,02,28,22.10
2012,08,05,02,29,22.10
2012,08,05,02,30,22.10
2012,08,05,02,31,22.10
2012,08,05,02,32,22.00
2012,08,05,02,33,22.00
2012,08,05,02,34,22.00
2012,08,05,02,35,21.90
2012,08,05,02,36,21.90
2012,08,05,02,37,21.90
2012,08,05,02,38,21.90
2012,08,05,02,39,21.90
2012,08,05,02,40,21.90
2012,08,05,02,41,21.80
2012,08,05,02,42,21.80
2012,08,05,02,43,21.80
2012,08,05,02,44,21.80
2012,08,05,02,45,21.80
2012,08,05,02,46,21.80
2012,08,05,02,47,21.80
2012,08,05,02,48,21.80
2012,08,05,02,49,21.80
2012,08,05,02,50,21.70
2012,08,05,02,51,21.70
2012,08,05,02,52,21.70
2012,08,05,02,53,21.70
2012,08,05,02,54,21.70
2012,08,05,02,55,21.70
2012,08,05,02,56,21.60
2012,08,05,02,57,21.60
2012,08,05,02,58,21.60
2012,08,05,02,59,21.60
2012,08,05,03,00,21.50
2012,08,05,03,01,21.50
2012,08,05,03,02,21.50
2012,08,05,03,03,21.40
2012,08,05,03,06,21.40
2012,08,05,03,07,21.30
2012,08,05,03,08,21.30
2012,08,05,03,09,21.30
2012,08,05,03,10,21.30
2012,08,05,03,11,21.30
2012,08,05,03,12,21.30
2012,08,05,03,13,21.30
2012,08,05,03,14,21.30
2012,08,05,03,15,21.30
2012,08,05,03,16,21.30
2012,08,05,03,17,21.30
2012,08,05,03,18,21.40
2012,08,05,03,19,21.40
2012,08,05,03,20,21.50
2012,08,05,03,21,21.50
2012,08,05,03,22,21.60
2012,08,05,03,23,21.60
2012,08,05,03,24,21.70
2012,08,05,03,25,21.70
2012,08,05,03,26,21.80
2012,08,05,03,27,21.80
2012,08,05,03,28,21.80
2012,08,05,03,29,21.80
2012,08,05,03,30,21.80
2012,08,05,03,31,21.90
2012,08,05,03,32,21.90
2012,08,05,03,33,21.90
2012,08,05,03,34,21.90
2012,08,05,03,35,21.90
2012,08,05,03,36,21.90
2012,08,05,03,37,21.90
2012,08,05,03,38,21.90
2012,08,05,03,39,21.90
2012,08,05,03,40,21.90
2012,08,05,03,41,21.90
2012,08,05,03,42,21.90
2012,08,05,03,43,21.80
2012,08,05,03,44,21.80
2012,08,05,03,45,21.80
2012,08,05,03,46,21.80
2012,08,05,03,47,21.90
2012,08,05,03,48,21.90
2012,08,05,03,49,21.90
2012,08,05,03,50,21.90
2012,08,05,03,51,21.90
2012,08,05,03,52,21.90
2012,08,05,03,53,21.90
2012,08,05,03,54,21.90
2012,08,05,03,55,21.90
2012,08,05,03,56,21.90
2012,08,05,03,57,21.90
2012,08,05,03,58,21.90
2012,08,05,03,59,21.90
2012,08,05,04,00,21.90
2012,08,05,04,01,21.90
2012,08,05,04,02,21.90
2012,08,05,04,03,21.90
2012,08,05,04,04,21.90
2012,08,05,04,05,21.90
2012,08,05,04,06,21.90
2012,08,05,04,07,21.90
2012,08,05,04,08,21.80
2012,08,05,04,09,21.80
2012,08,05,04,10,21.80
2012,08,05,04,11,21.80
2012,08,05,04,12,21.80
2012,08,05,04,13,21.70
2012,08,05,04,14,21.70
2012,08,05,04,15,21.70
2012,08,05,04,16,21.70
2012,08,05,04,17,21.70
2012,08,05,04,18,21.70
2012,08,05,04,19,21.60
2012,08,05,04,20,21.60
2012,08,05,04,21,21.70
2012,08,05,04,22,21.70
2012,08,05,04,23,21.70
2012,08,05,04,24,21.70
2012,08,05,04,25,21.70
2012,08,05,04,26,21.70
2012,08,05,04,27,21.70
2012,08,05,04,28,21.70
2012,08,05,04,29,21.70
2012,08,05,04,30,21.70
2012,08,05,04,31,21.70
2012,08,05,04,32,21.70
2012,08,05,04,33,21.70
2012,08,05,04,34,21.70
2012,08,05,04,35,21.70
2012,08,05,04,36,21.70
2012,08,05,04,37,21.70
2012,08,05,04,38,21.60
2012,08,05,04,39,21.60
2012,08,05,04,40,21.60
2012,08,05,04,41,21.60
2012,08,05,04,42,21.60
2012,08,05,04,43,21.60
2012,08,05,04,44,21.60
2012,08,05,04,45,21.60
2012,08,05,04,46,21.60
2012,08,05,04,47,21.60
2012,08,05,04,48,21.60
2012,08,05,04,49,21.60
2012,08,05,04,50,21.60
2012,08,05,04,51,21.60
2012,08,05,04,52,21.60
2012,08,05,04,53,21.60
2012,08,05,04,54,21.60
2012,08,05,04,55,21.60
2012,08,05,04,56,21.60
2012,08,05,04,57,21.50
2012,08,05,04,58,21.50
2012,08,05,04,59,21.50
2012,08,05,05,00,21.40
2012,08,05,05,01,21.40
2012,08,05,05,02,21.40
2012,08,05,05,03,21.40
2012,08,05,05,04,21.30
2012,08,05,05,05,21.30
2012,08,05,05,06,21.20
2012,08,05,05,07,21.20
2012,08,05,05,08,21.10
2012,08,05,05,09,21.00
2012,08,05,05,10,20.90
2012,08,05,05,11,20.80
2012,08,05,05,12,20.70
2012,08,05,05,13,20.60
2012,08,05,05,14,20.50
2012,08,05,05,15,20.40
2012,08,05,05,16,20.30
2012,08,05,05,17,20.30
2012,08,05,05,18,20.30
2012,08,05,05,19,20.30
2012,08,05,05,20,20.30
2012,08,05,05,21,20.40
2012,08,05,05,22,20.40
2012,08,05,05,23,20.50
2012,08,05,05,24,20.50
2012,08,05,05,25,20.50
2012,08,05,05,26,20.60
2012,08,05,05,27,20.50
2012,08,05,05,28,20.50
2012,08,05,05,29,20.50
2012,08,05,05,30,20.40
2012,08,05,05,31,20.40
2012,08,05,05,32,20.30
2012,08,05,05,33,20.30
2012,08,05,05,34,20.30
2012,08,05,05,35,20.30
2012,08,05,05,36,20.30
2012,08,05,05,37,20.30
2012,08,05,05,38,20.30
2012,08,05,05,39,20.30
2012,08,05,05,40,20.30
2012,08,05,05,41,20.30
2012,08,05,05,42,20.30
2012,08,05,05,43,20.30
2012,08,05,05,44,20.20
2012,08,05,05,45,20.30
2012,08,05,05,46,20.30
2012,08,05,05,47,20.30
2012,08,05,05,48,20.40
2012,08,05,05,49,20.40
2012,08,05,05,50,20.50
2012,08,05,05,51,20.50
2012,08,05,05,52,20.50
2012,08,05,05,53,20.50
2012,08,05,05,54,20.60
2012,08,05,05,55,20.60
2012,08,05,05,56,20.60
2012,08,05,05,57,20.60
2012,08,05,05,58,20.60
2012,08,05,05,59,20.50
2012,08,05,06,00,20.50
2012,08,05,06,01,20.40
2012,08,05,06,02,20.40
2012,08,05,06,03,20.40
2012,08,05,06,04,20.30
2012,08,05,06,05,20.30
2012,08,05,06,06,20.30
2012,08,05,06,07,20.30
2012,08,05,06,08,20.30
2012,08,05,06,09,20.20
2012,08,05,06,10,20.20
2012,08,05,06,11,20.20
2012,08,05,06,12,20.20
2012,08,05,06,13,20.20
2012,08,05,06,14,20.20
2012,08,05,06,15,20.30
2012,08,05,06,16,20.30
2012,08,05,06,17,20.30
2012,08,05,06,18,20.40
2012,08,05,06,19,20.40
2012,08,05,06,20,20.50
2012,08,05,06,21,20.60
2012,08,05,06,22,20.60
2012,08,05,06,23,20.60
2012,08,05,06,24,20.60
2012,08,05,06,25,20.70
2012,08,05,06,26,20.70
2012,08,05,06,27,20.70
2012,08,05,06,28,20.70
2012,08,05,06,29,20.70
2012,08,05,06,30,20.70
2012,08,05,06,31,20.70
2012,08,05,06,32,20.70
2012,08,05,06,33,20.80
2012,08,05,06,34,20.80
2012,08,05,06,35,20.80
2012,08,05,06,36,20.80
2012,08,05,06,37,20.80
2012,08,05,06,38,20.80
2012,08,05,06,39,20.80
2012,08,05,06,40,20.80
2012,08,05,06,41,20.80
2012,08,05,06,42,20.80
2012,08,05,06,43,20.80
2012,08,05,06,44,20.90
2012,08,05,06,45,20.90
2012,08,05,06,46,20.90
2012,08,05,06,47,20.90
2012,08,05,06,48,20.90
2012,08,05,06,49,20.90
2012,08,05,06,50,20.90
2012,08,05,06,51,20.90
2012,08,05,06,52,20.90
2012,08,05,06,53,20.90
2012,08,05,06,54,20.90
2012,08,05,06,55,20.90
2012,08,05,06,56,20.90
2012,08,05,06,57,20.90
2012,08,05,06,58,21.00
2012,08,05,06,59,21.00
2012,08,05,07,00,21.00
2012,08,05,07,01,21.00
2012,08,05,07,02,21.10
2012,08,05,07,03,21.10
2012,08,05,07,04,21.10
2012,08,05,07,05,21.10
2012,08,05,07,06,21.10
2012,08,05,07,07,21.10
2012,08,05,07,08,21.10
2012,08,05,07,09,21.10
2012,08,05,07,10,21.10
2012,08,05,07,11,21.10
2012,08,05,07,12,21.10
2012,08,05,07,13,21.10
2012,08,05,07,14,21.10
2012,08,05,07,15,21.10
2012,08,05,07,16,21.10
2012,08,05,07,17,21.20
2012,08,05,07,18,21.20
2012,08,05,07,19,21.20
2012,08,05,07,20,21.20
2012,08,05,07,21,21.30
2012,08,05,07,22,21.30
2012,08,05,07,23,21.30
2012,08,05,07,24,21.30
2012,08,05,07,25,21.30
2012,08,05,07,26,21.40
2012,08,05,07,27,21.40
2012,08,05,07,28,21.40
2012,08,05,07,29,21.40
2012,08,05,07,30,21.40
2012,08,05,07,31,21.40
2012,08,05,07,32,21.50
2012,08,05,07,33,21.50
2012,08,05,07,34,21.50
2012,08,05,07,35,21.60
2012,08,05,07,36,21.60
2012,08,05,07,37,21.60
2012,08,05,07,38,21.60
2012,08,05,07,39,21.60
2012,08,05,07,40,21.60
2012,08,05,07,41,21.60
2012,08,05,07,42,21.50
2012,08,05,07,43,21.50
2012,08,05,07,44,21.50
2012,08,05,07,45,21.50
2012,08,05,07,46,21.50
2012,08,05,07,47,21.50
2012,08,05,07,48,21.50
2012,08,05,07,49,21.50
2012,08,05,07,50,21.50
2012,08,05,07,51,21.40
2012,08,05,07,52,21.40
2012,08,05,07,53,21.40
2012,08,05,07,54,21.40
2012,08,05,07,55,21.40
2012,08,05,07,56,21.40
2012,08,05,07,57,21.40
2012,08,05,07,58,21.40
2012,08,05,07,59,21.40
2012,08,05,08,00,21.40
2012,08,05,08,01,21.30
2012,08,05,08,02,21.30
2012,08,05,08,03,21.40
2012,08,05,08,04,21.40
2012,08,05,08,05,21.40
2012,08,05,08,06,21.40
2012,08,05,08,07,21.50
2012,08,05,08,08,21.50
2012,08,05,08,09,21.60
2012,08,05,08,10,21.60
2012,08,05,08,11,21.60
2012,08,05,08,12,21.60
2012,08,05,08,13,21.60
2012,08,05,08,14,21.60
2012,08,05,08,15,21.60
2012,08,05,08,16,21.60
2012,08,05,08,17,21.60
2012,08,05,08,18,21.60
2012,08,05,08,19,21.60
2012,08,05,08,20,21.60
2012,08,05,08,21,21.60
2012,08,05,08,22,21.60
2012,08,05,08,23,21.70
2012,08,05,08,24,21.70
2012,08,05,08,25,21.80
2012,08,05,08,26,21.80
2012,08,05,08,27,21.80
2012,08,05,08,28,21.80
2012,08,05,08,29,21.70
2012,08,05,08,30,21.70
2012,08,05,08,31,21.70
2012,08,05,08,32,21.70
2012,08,05,08,33,21.70
2012,08,05,08,34,21.60
2012,08,05,08,35,21.60
2012,08,05,08,36,21.60
2012,08,05,08,37,21.60
2012,08,05,08,38,21.50
2012,08,05,08,39,21.50
2012,08,05,08,40,21.60
2012,08,05,08,41,21.60
2012,08,05,08,42,21.60
2012,08,05,08,43,21.60
2012,08,05,08,44,21.70
2012,08,05,08,45,21.70
2012,08,05,08,46,21.60
2012,08,05,08,47,21.60
2012,08,05,08,48,21.60
2012,08,05,08,49,21.60
2012,08,05,08,50,21.60
2012,08,05,08,51,21.60
2012,08,05,08,52,21.70
2012,08,05,08,53,21.70
2012,08,05,08,54,21.80
2012,08,05,08,55,21.80
2012,08,05,08,56,21.80
2012,08,05,08,57,21.70
2012,08,05,08,58,21.60
2012,08,05,08,59,21.50
2012,08,05,09,00,21.40
2012,08,05,09,01,21.30
2012,08,05,09,02,21.20
2012,08,05,09,03,21.20
2012,08,05,09,04,21.20
2012,08,05,09,05,21.20
2012,08,05,09,06,21.20
2012,08,05,09,07,21.20
2012,08,05,09,08,21.10
2012,08,05,09,09,21.10
2012,08,05,09,10,21.10
2012,08,05,09,11,21.10
2012,08,05,09,12,21.10
2012,08,05,09,13,21.10
2012,08,05,09,14,21.10
2012,08,05,09,15,21.10
2012,08,05,09,16,21.00
2012,08,05,09,17,21.00
2012,08,05,09,18,21.00
2012,08,05,09,19,21.00
2012,08,05,09,20,21.00
2012,08,05,09,21,21.00
2012,08,05,09,22,21.00
2012,08,05,09,23,21.00
2012,08,05,09,24,21.00
2012,08,05,09,25,21.00
2012,08,05,09,26,21.10
2012,08,05,09,27,21.10
2012,08,05,09,28,21.10
2012,08,05,09,29,21.10
2012,08,05,09,30,21.10
2012,08,05,09,31,21.10
2012,08,05,09,32,21.10
2012,08,05,09,33,21.10
2012,08,05,09,34,21.10
2012,08,05,09,35,21.10
2012,08,05,09,36,21.20
2012,08,05,09,37,21.20
2012,08,05,09,38,21.30
2012,08,05,09,39,21.30
2012,08,05,09,40,21.30
2012,08,05,09,41,21.30
2012,08,05,09,42,21.30
2012,08,05,09,43,21.30
2012,08,05,09,44,21.30
2012,08,05,09,45,21.30
2012,08,05,09,46,21.30
2012,08,05,09,47,21.20
2012,08,05,09,48,21.20
2012,08,05,09,49,21.20
2012,08,05,09,50,21.10
2012,08,05,09,51,21.10
2012,08,05,09,52,21.10
2012,08,05,09,53,21.00
2012,08,05,09,54,20.90
2012,08,05,09,55,20.90
2012,08,05,09,56,20.90
2012,08,05,09,57,20.90
2012,08,05,09,58,21.00
2012,08,05,09,59,21.10
2012,08,05,10,00,21.10
2012,08,05,10,01,21.10
2012,08,05,10,02,21.10
2012,08,05,10,03,21.00
2012,08,05,10,04,21.00
2012,08,05,10,05,20.90
2012,08,05,10,06,20.90
2012,08,05,10,07,21.00
2012,08,05,10,08,21.10
2012,08,05,10,09,21.10
2012,08,05,10,10,21.00
2012,08,05,10,11,20.90
2012,08,05,10,12,20.90
2012,08,05,10,13,20.80
2012,08,05,10,14,20.80
2012,08,05,10,15,20.80
2012,08,05,10,16,20.80
2012,08,05,10,17,20.70
2012,08,05,10,18,20.70
2012,08,05,10,19,20.70
2012,08,05,10,20,20.70
2012,08,05,10,21,20.80
2012,08,05,10,22,20.80
2012,08,05,10,23,20.80
2012,08,05,10,24,20.80
2012,08,05,10,25,20.80
2012,08,05,10,26,20.80
2012,08,05,10,27,20.80
2012,08,05,10,28,20.80
2012,08,05,10,29,20.70
2012,08,05,10,30,20.80
2012,08,05,10,31,20.80
2012,08,05,10,32,20.80
2012,08,05,10,33,20.80
2012,08,05,10,34,20.90
2012,08,05,10,35,20.80
2012,08,05,10,36,20.80
2012,08,05,10,37,20.90
2012,08,05,10,38,20.90
2012,08,05,10,39,20.90
2012,08,05,10,40,20.90
2012,08,05,10,41,21.00
2012,08,05,10,42,21.00
2012,08,05,10,43,21.10
2012,08,05,10,44,21.10
2012,08,05,10,45,21.10
2012,08,05,10,46,21.00
2012,08,05,10,47,20.90
2012,08,05,10,48,20.90
2012,08,05,10,49,20.80
2012,08,05,10,50,20.80
2012,08,05,10,51,20.80
2012,08,05,10,52,20.70
2012,08,05,10,53,20.70
2012,08,05,10,54,20.70
2012,08,05,10,55,20.80
2012,08,05,10,56,20.80
2012,08,05,10,57,20.80
2012,08,05,10,58,20.80
2012,08,05,10,59,20.80
2012,08,05,11,00,20.80
2012,08,05,11,01,20.70
2012,08,05,11,02,20.70
2012,08,05,11,03,20.70
2012,08,05,11,04,20.60
2012,08,05,11,05,20.50
2012,08,05,11,06,20.50
2012,08,05,11,07,20.60
2012,08,05,11,08,20.60
2012,08,05,11,09,20.70
2012,08,05,11,10,20.70
2012,08,05,11,11,20.70
2012,08,05,11,12,20.80
2012,08,05,11,13,20.80
2012,08,05,11,14,20.80
2012,08,05,11,15,20.80
2012,08,05,11,16,20.90
2012,08,05,11,17,21.00
2012,08,05,11,18,21.10
2012,08,05,11,19,21.10
2012,08,05,11,20,21.00
2012,08,05,11,21,20.90
2012,08,05,11,22,20.80
2012,08,05,11,23,20.80
2012,08,05,11,24,20.80
2012,08,05,11,25,20.90
2012,08,05,11,26,20.90
2012,08,05,11,27,21.00
2012,08,05,11,28,21.00
2012,08,05,11,29,21.00
2012,08,05,11,30,20.90
2012,08,05,11,31,20.90
2012,08,05,11,32,20.90
2012,08,05,11,33,20.90
2012,08,05,11,34,20.90
2012,08,05,11,35,20.90
2012,08,05,11,36,20.80
2012,08,05,11,37,20.80
2012,08,05,11,38,20.80
2012,08,05,11,39,20.90
2012,08,05,11,40,20.90
2012,08,05,11,41,21.00
2012,08,05,11,42,21.00
2012,08,05,11,43,21.10
2012,08,05,11,44,21.10
2012,08,05,11,45,21.10
2012,08,05,11,46,21.10
2012,08,05,11,47,21.20
2012,08,05,11,48,21.10
2012,08,05,11,49,21.10
2012,08,05,11,50,21.20
2012,08,05,11,51,21.20
2012,08,05,11,52,21.20
2012,08,05,11,53,21.20
2012,08,05,11,54,21.20
2012,08,05,11,55,21.30
2012,08,05,11,56,21.20
2012,08,05,11,57,21.20
2012,08,05,11,58,21.30
2012,08,05,11,59,21.30
2012,08,05,12,00,21.40
2012,08,05,12,01,21.40
2012,08,05,12,02,21.50
2012,08,05,12,03,21.50
2012,08,05,12,04,21.60
2012,08,05,12,05,21.60
2012,08,05,12,06,21.60
2012,08,05,12,07,21.60
2012,08,05,12,08,21.60
2012,08,05,12,09,21.60
2012,08,05,12,10,21.60
2012,08,05,12,11,21.70
2012,08,05,12,12,21.70
2012,08,05,12,13,21.70
2012,08,05,12,14,21.70
2012,08,05,12,15,21.80
2012,08,05,12,16,21.80
2012,08,05,12,17,21.90
2012,08,05,12,18,21.90
2012,08,05,12,19,22.00
2012,08,05,12,20,22.10
2012,08,05,12,21,22.10
2012,08,05,12,22,22.00
2012,08,05,12,23,21.90
2012,08,05,12,24,21.90
2012,08,05,12,25,21.90
2012,08,05,12,26,21.80
2012,08,05,12,27,21.80
2012,08,05,12,28,21.90
2012,08,05,12,29,22.00
2012,08,05,12,30,22.00
2012,08,05,12,31,22.00
2012,08,05,12,32,22.00
2012,08,05,12,33,22.10
2012,08,05,12,34,22.10
2012,08,05,12,35,22.10
2012,08,05,12,36,22.10
2012,08,05,12,37,22.10
2012,08,05,12,38,22.20
2012,08,05,12,39,22.20
2012,08,05,12,40,22.20
2012,08,05,12,41,22.30
2012,08,05,12,42,22.20
2012,08,05,12,43,22.10
2012,08,05,12,44,22.00
2012,08,05,12,45,21.90
2012,08,05,12,46,21.80
2012,08,05,12,47,21.80
2012,08,05,12,48,21.80
2012,08,05,12,49,21.80
2012,08,05,12,50,21.80
2012,08,05,12,51,21.80
2012,08,05,12,52,21.80
2012,08,05,12,53,21.80
2012,08,05,12,54,21.80
2012,08,05,12,55,21.80
2012,08,05,12,56,21.90
2012,08,05,12,57,22.00
2012,08,05,12,58,22.10
2012,08,05,12,59,22.00
2012,08,05,13,00,22.00
2012,08,05,13,01,22.10
2012,08,05,13,02,22.20
2012,08,05,13,03,22.20
2012,08,05,13,04,22.20
2012,08,05,13,05,22.20
2012,08,05,13,06,22.20
2012,08,05,13,07,22.30
2012,08,05,13,08,22.30
2012,08,05,13,09,22.30
2012,08,05,13,10,22.30
2012,08,05,13,11,22.30
2012,08,05,13,12,22.30
2012,08,05,13,13,22.40
2012,08,05,13,14,22.40
2012,08,05,13,15,22.40
2012,08,05,13,16,22.40
2012,08,05,13,17,22.50
2012,08,05,13,18,22.50
2012,08,05,13,19,22.60
2012,08,05,13,20,22.70
2012,08,05,13,21,22.70
2012,08,05,13,22,22.80
2012,08,05,13,23,22.80
2012,08,05,13,24,22.80
2012,08,05,13,25,22.80
2012,08,05,13,26,22.90
2012,08,05,13,27,22.90
2012,08,05,13,28,22.80
2012,08,05,13,29,22.80
2012,08,05,13,30,22.80
2012,08,05,13,31,22.80
2012,08,05,13,32,22.80
2012,08,05,13,33,22.90
2012,08,05,13,34,23.00
2012,08,05,13,35,23.10
2012,08,05,13,36,23.20
2012,08,05,13,37,23.20
2012,08,05,13,38,23.20
2012,08,05,13,39,23.20
2012,08,05,13,40,23.20
2012,08,05,13,41,23.30
2012,08,05,13,42,23.20
2012,08,05,13,43,23.30
2012,08,05,13,44,23.40
2012,08,05,13,45,23.50
2012,08,05,13,46,23.50
2012,08,05,13,47,23.40
2012,08,05,13,48,23.50
2012,08,05,13,49,23.50
2012,08,05,13,50,23.50
2012,08,05,13,51,23.40
2012,08,05,13,52,23.40
2012,08,05,13,53,23.40
2012,08,05,13,54,23.50
2012,08,05,13,55,23.60
2012,08,05,13,56,23.80
2012,08,05,13,57,23.90
2012,08,05,13,58,23.90
2012,08,05,13,59,24.00
2012,08,05,14,00,24.00
2012,08,05,14,01,24.00
2012,08,05,14,02,24.00
2012,08,05,14,03,24.00
2012,08,05,14,04,24.10
2012,08,05,14,05,24.20
2012,08,05,14,06,24.40
2012,08,05,14,07,24.50
2012,08,05,14,08,24.60
2012,08,05,14,09,24.60
2012,08,05,14,10,24.70
2012,08,05,14,11,24.80
2012,08,05,14,12,24.80
2012,08,05,14,13,24.90
2012,08,05,14,14,24.90
2012,08,05,14,15,24.90
2012,08,05,14,16,24.90
2012,08,05,14,17,24.80
2012,08,05,14,18,24.80
2012,08,05,14,19,24.70
2012,08,05,14,20,24.70
2012,08,05,14,21,24.60
2012,08,05,14,22,24.70
2012,08,05,14,23,24.80
2012,08,05,14,24,24.80
2012,08,05,14,25,24.90
2012,08,05,14,26,24.90
2012,08,05,14,27,25.00
2012,08,05,14,28,25.00
2012,08,05,14,29,25.10
2012,08,05,14,30,25.20
2012,08,05,14,31,25.20
2012,08,05,14,32,25.20
2012,08,05,14,33,25.20
2012,08,05,14,34,25.20
2012,08,05,14,35,25.10
2012,08,05,14,36,25.20
2012,08,05,14,37,25.10
2012,08,05,14,38,25.20
2012,08,05,14,39,25.20
2012,08,05,14,40,25.20
2012,08,05,14,41,25.20
2012,08,05,14,42,25.20
2012,08,05,14,43,25.20
2012,08,05,14,44,25.20
2012,08,05,14,45,25.20
2012,08,05,14,46,25.20
2012,08,05,14,47,25.20
2012,08,05,14,48,25.20
2012,08,05,14,49,25.20
2012,08,05,14,50,25.30
2012,08,05,14,51,25.40
2012,08,05,14,52,25.40
2012,08,05,14,53,25.40
2012,08,05,14,54,25.30
2012,08,05,14,55,25.30
2012,08,05,14,56,25.30
2012,08,05,14,57,25.30
2012,08,05,14,58,25.40
2012,08,05,14,59,25.50
2012,08,05,15,00,25.50
2012,08,05,15,01,25.60
2012,08,05,15,02,25.60
2012,08,05,15,03,25.70
2012,08,05,15,04,25.70
2012,08,05,15,05,25.80
2012,08,05,15,06,25.90
2012,08,05,15,07,25.90
2012,08,05,15,08,25.90
2012,08,05,15,09,25.80
2012,08,05,15,10,25.80
2012,08,05,15,11,25.80
2012,08,05,15,12,25.90
2012,08,05,15,13,25.90
2012,08,05,15,14,25.90
2012,08,05,15,15,25.90
2012,08,05,15,16,26.00
2012,08,05,15,17,26.00
2012,08,05,15,18,26.10
2012,08,05,15,19,26.20
2012,08,05,15,20,26.20
2012,08,05,15,21,26.20
2012,08,05,15,22,26.30
2012,08,05,15,23,26.30
2012,08,05,15,24,26.40
2012,08,05,15,25,26.40
2012,08,05,15,26,26.50
2012,08,05,15,27,26.60
2012,08,05,15,28,26.70
2012,08,05,15,29,26.80
2012,08,05,15,30,26.80
2012,08,05,15,31,26.80
2012,08,05,15,32,26.80
2012,08,05,15,33,26.70
2012,08,05,15,34,26.70
2012,08,05,15,35,26.80
2012,08,05,15,36,26.80
2012,08,05,15,37,26.80
2012,08,05,15,38,26.80
2012,08,05,15,39,26.80
2012,08,05,15,40,26.80
2012,08,05,15,41,26.80
2012,08,05,15,42,26.80
2012,08,05,15,43,26.80
2012,08,05,15,44,26.80
2012,08,05,15,45,26.80
2012,08,05,15,46,26.80
2012,08,05,15,47,26.70
2012,08,05,15,48,26.80
2012,08,05,15,49,26.90
2012,08,05,15,50,27.00
2012,08,05,15,51,27.00
2012,08,05,15,52,27.10
2012,08,05,15,53,27.10
2012,08,05,15,54,27.10
2012,08,05,15,55,27.10
2012,08,05,15,56,27.00
2012,08,05,15,57,27.00
2012,08,05,15,58,26.90
2012,08,05,15,59,27.00
2012,08,05,16,00,27.00
2012,08,05,16,01,27.10
2012,08,05,16,02,27.10
2012,08,05,16,03,27.10
2012,08,05,16,04,27.10
2012,08,05,16,05,27.10
2012,08,05,16,06,27.00
2012,08,05,16,07,27.00
2012,08,05,16,08,26.90
2012,08,05,16,09,27.00
2012,08,05,16,10,27.00
2012,08,05,16,11,27.10
2012,08,05,16,12,27.10
2012,08,05,16,13,27.20
2012,08,05,16,14,27.20
2012,08,05,16,15,27.20
2012,08,05,16,16,27.20
2012,08,05,16,17,27.20
2012,08,05,16,18,27.20
2012,08,05,16,19,27.20
2012,08,05,16,20,27.20
2012,08,05,16,21,27.20
2012,08,05,16,22,27.20
2012,08,05,16,23,27.30
2012,08,05,16,24,27.40
2012,08,05,16,25,27.50
2012,08,05,16,26,27.60
2012,08,05,16,27,27.60
2012,08,05,16,28,27.60
2012,08,05,16,29,27.70
2012,08,05,16,30,27.70
2012,08,05,16,31,27.70
2012,08,05,16,32,27.70
2012,08,05,16,33,27.70
2012,08,05,16,34,27.70
2012,08,05,16,35,27.70
2012,08,05,16,36,27.70
2012,08,05,16,37,27.70
2012,08,05,16,38,27.70
2012,08,05,16,39,27.70
2012,08,05,16,40,27.70
2012,08,05,16,41,27.70
2012,08,05,16,42,27.70
2012,08,05,16,43,27.70
2012,08,05,16,44,27.60
2012,08,05,16,45,27.60
2012,08,05,16,46,27.60
2012,08,05,16,47,27.60
2012,08,05,16,48,27.50
2012,08,05,16,49,27.50
2012,08,05,16,50,27.40
2012,08,05,16,51,27.40
2012,08,05,16,52,27.40
2012,08,05,16,53,27.40
2012,08,05,16,54,27.40
2012,08,05,16,55,27.50
2012,08,05,16,56,27.50
2012,08,05,16,57,27.50
2012,08,05,16,58,27.50
2012,08,05,16,59,27.50
2012,08,05,17,00,27.50
2012,08,05,17,01,27.40
2012,08,05,17,02,27.40
2012,08,05,17,03,27.40
2012,08,05,17,04,27.40
2012,08,05,17,05,27.40
2012,08,05,17,06,27.50
2012,08,05,17,07,27.50
2012,08,05,17,08,27.60
2012,08,05,17,09,27.60
2012,08,05,17,10,27.60
2012,08,05,17,11,27.60
2012,08,05,17,12,27.50
2012,08,05,17,13,27.50
2012,08,05,17,14,27.40
2012,08,05,17,15,27.30
2012,08,05,17,16,27.40
2012,08,05,17,17,27.40
2012,08,05,17,18,27.40
2012,08,05,17,19,27.40
2012,08,05,17,20,27.40
2012,08,05,17,21,27.40